| time (UTC) | temp F | wind direction | speed knots | gust knots | rain 1hr in | rain 24hr in | rain mn in | humidity % | barometer mb |
| 20260510214535 | 63 | 315 | 7.8 | 15.6 | 0.00 | 0.00 | 0.00 | 59 | 1019.2 |
| 20260510211536 | 61 | 308 | 7.0 | 15.6 | 0.00 | 0.00 | 0.00 | 60 | 1019.5 |
| 20260510210035 | 61 | 310 | 6.1 | 13.9 | 0.00 | 0.00 | 0.00 | 61 | 1019.3 |
| 20260510204640 | 61 | 307 | 9.6 | 19.1 | 0.00 | 0.00 | 0.00 | 59 | 1018.9 |
| 20260510203150 | 63 | 313 | 7.8 | 15.6 | 0.00 | 0.00 | 0.00 | 58 | 1018.4 |
| 20260510200035 | 65 | 300 | 7.8 | 16.5 | 0.00 | 0.00 | 0.00 | 57 | 1018.2 |
| 20260510194534 | 64 | 308 | 7.8 | 14.8 | 0.00 | 0.00 | 0.00 | 58 | 1018.2 |
| 20260510191535 | 65 | 307 | 7.0 | 17.4 | 0.00 | 0.00 | 0.00 | 58 | 1017.9 |
| 20260510190153 | 65 | 302 | 5.2 | 12.2 | 0.00 | 0.00 | 0.00 | 57 | 1017.8 |
| 20260510184642 | 66 | 295 | 5.2 | 13.9 | 0.00 | 0.00 | 0.00 | 56 | 1017.7 |
| 20260510183032 | 66 | 300 | 4.3 | 10.4 | 0.00 | 0.00 | 0.00 | 57 | 1017.7 |
| 20260510181535 | 65 | 303 | 7.0 | 12.2 | 0.00 | 0.00 | 0.00 | 57 | 1017.6 |
| 20260510180034 | 65 | 308 | 7.0 | 12.2 | 0.00 | 0.00 | 0.00 | 58 | 1017.5 |
| 20260510173035 | 63 | 315 | 2.6 | 5.2 | 0.00 | 0.00 | 0.00 | 60 | 1017.7 |
| 20260510171534 | 63 | 7 | 3.5 | 7.0 | 0.00 | 0.00 | 0.00 | 64 | 1017.6 |
| 20260510170030 | 63 | 331 | 2.6 | 4.3 | 0.00 | 0.00 | 0.00 | 63 | 1017.6 |
| 20260510164531 | 61 | 349 | 0.9 | 4.3 | 0.00 | 0.00 | 0.00 | 68 | 1017.6 |
| 20260510163034 | 60 | 3 | 1.7 | 3.5 | 0.00 | 0.00 | 0.00 | 69 | 1017.5 |
| 20260510160033 | 59 | 72 | 0.9 | 2.6 | 0.00 | 0.00 | 0.00 | 65 | 1017.6 |
| 20260510154531 | 58 | 217 | 0.0 | 1.7 | 0.00 | 0.00 | 0.00 | 67 | 1017.3 |
| 20260510153030 | 57 | 190 | 0.9 | 3.5 | 0.00 | 0.00 | 0.00 | 70 | 1017.2 |
| 20260510151533 | 56 | 131 | 1.7 | 3.5 | 0.00 | 0.00 | 0.00 | 72 | 1017.1 |
| 20260510150033 | 55 | 137 | 0.9 | 3.5 | 0.00 | 0.00 | 0.00 | 75 | 1017.3 |
| 20260510144649 | 54 | 126 | 0.0 | 2.6 | 0.00 | 0.00 | 0.00 | 76 | 1017.0 |
| 20260510143031 | 53 | 145 | 0.0 | 3.5 | 0.00 | 0.00 | 0.00 | 76 | 1016.8 |
| 20260510141533 | 51 | 166 | 2.6 | 4.3 | 0.00 | 0.00 | 0.00 | 76 | 1016.7 |
| 20260510134536 | 48 | 141 | 2.6 | 4.3 | 0.00 | 0.00 | 0.00 | 81 | 1016.8 |
| 20260510133039 | 47 | 166 | 1.7 | 3.5 | 0.00 | 0.00 | 0.00 | 80 | 1016.8 |
| 20260510131612 | 47 | 158 | 0.9 | 2.6 | 0.00 | 0.00 | 0.00 | 79 | 1016.6 |
| 20260510124535 | 45 | 182 | 1.7 | 3.5 | 0.00 | 0.00 | 0.00 | 82 | 1016.5 |
| 20260510123032 | 45 | 154 | 2.6 | 4.3 | 0.00 | 0.00 | 0.00 | 82 | 1016.8 |
| 20260510120035 | 44 | 165 | 2.6 | 5.2 | 0.00 | 0.00 | 0.00 | 82 | 1016.6 |
| 20260510114536 | 45 | 157 | 1.7 | 3.5 | 0.00 | 0.00 | 0.00 | 80 | 1016.8 |
| 20260510113036 | 46 | 157 | 2.6 | 3.5 | 0.00 | 0.00 | 0.00 | 79 | 1016.6 |
| 20260510111533 | 46 | 160 | 2.6 | 3.5 | 0.00 | 0.00 | 0.00 | 79 | 1016.5 |
| 20260510110150 | 46 | 168 | 2.6 | 5.2 | 0.00 | 0.00 | 0.00 | 80 | 1016.4 |
| 20260510104537 | 46 | 155 | 2.6 | 4.3 | 0.00 | 0.00 | 0.00 | 78 | 1016.7 |
| 20260510103108 | 47 | 157 | 2.6 | 4.3 | 0.00 | 0.00 | 0.00 | 77 | 1016.9 |
| 20260510101531 | 47 | 159 | 2.6 | 4.3 | 0.00 | 0.00 | 0.00 | 77 | 1016.7 |
| 20260510100142 | 47 | 151 | 3.5 | 4.3 | 0.00 | 0.00 | 0.00 | 78 | 1016.6 |
| 20260510094536 | 47 | 157 | 2.6 | 4.3 | 0.00 | 0.00 | 0.00 | 76 | 1016.6 |
| 20260510093035 | 48 | 157 | 2.6 | 3.5 | 0.00 | 0.00 | 0.00 | 76 | 1016.6 |
| 20260510091535 | 48 | 157 | 2.6 | 3.5 | 0.00 | 0.00 | 0.00 | 74 | 1016.9 |
| 20260510090151 | 49 | 157 | 2.6 | 3.5 | 0.00 | 0.00 | 0.00 | 74 | 1017.0 |
| 20260510084532 | 49 | 157 | 2.6 | 3.5 | 0.00 | 0.00 | 0.00 | 73 | 1017.1 |
| 20260510083035 | 50 | 156 | 2.6 | 5.2 | 0.00 | 0.00 | 0.00 | 74 | 1017.2 |
| 20260510081530 | 49 | 154 | 3.5 | 5.2 | 0.00 | 0.00 | 0.00 | 77 | 1017.3 |
| 20260510080034 | 49 | 156 | 3.5 | 4.3 | 0.00 | 0.00 | 0.00 | 78 | 1017.4 |
| 20260510070030 | 51 | 157 | 2.6 | 3.5 | 0.00 | 0.00 | 0.00 | 75 | 1017.5 |
| 20260510061534 | 53 | 141 | 2.6 | 5.2 | 0.00 | 0.00 | 0.00 | 71 | 1017.4 |
| 20260510060032 | 53 | 160 | 1.7 | 3.5 | 0.00 | 0.00 | 0.00 | 73 | 1017.4 |
| 20260510054534 | 53 | 157 | 2.6 | 4.3 | 0.00 | 0.00 | 0.00 | 73 | 1017.3 |
| 20260510053036 | 54 | 162 | 2.6 | 3.5 | 0.00 | 0.00 | 0.00 | 71 | 1017.4 |
| 20260510051534 | 54 | 161 | 2.6 | 3.5 | 0.00 | 0.00 | 0.00 | 71 | 1017.2 |
| 20260510050111 | 55 | 157 | 2.6 | 4.3 | 0.00 | 0.00 | 0.00 | 71 | 1017.1 |
| 20260510044535 | 57 | 140 | 3.5 | 4.3 | 0.00 | 0.00 | 0.00 | 67 | 1017.1 |
| 20260510043034 | 58 | 157 | 2.6 | 3.5 | 0.00 | 0.00 | 0.00 | 68 | 1017.1 |
| 20260510041535 | 59 | 142 | 3.5 | 4.3 | 0.00 | 0.00 | 0.00 | 67 | 1017.0 |
| 20260510040036 | 61 | 137 | 2.6 | 5.2 | 0.00 | 0.00 | 0.00 | 63 | 1016.9 |
| 20260510034533 | 63 | 157 | 2.6 | 4.3 | 0.00 | 0.00 | 0.00 | 62 | 1016.7 |
| 20260510033143 | 64 | 162 | 2.6 | 3.5 | 0.00 | 0.00 | 0.00 | 62 | 1016.6 |
| 20260510031532 | 66 | 168 | 1.7 | 3.5 | 0.00 | 0.00 | 0.00 | 57 | 1016.6 |
| 20260510030141 | 68 | 291 | 0.0 | 0.9 | 0.00 | 0.00 | 0.00 | 53 | 1016.6 |
| 20260510024537 | 69 | 292 | 0.0 | 0.0 | 0.00 | 0.00 | 0.00 | 48 | 1016.6 |
| 20260510023033 | 70 | 292 | 0.0 | 0.0 | 0.00 | 0.00 | 0.00 | 42 | 1016.7 |
| 20260510021535 | 71 | 292 | 0.0 | 0.0 | 0.00 | 0.00 | 0.00 | 42 | 1016.6 |
| 20260510020145 | 72 | 292 | 0.0 | 0.0 | 0.00 | 0.00 | 0.00 | 38 | 1016.6 |
| 20260510014645 | 73 | 292 | 0.9 | 1.7 | 0.00 | 0.00 | 0.00 | 34 | 1016.9 |
| 20260510013143 | 73 | 292 | 0.0 | 1.7 | 0.00 | 0.00 | 0.00 | 34 | 1017.0 |
| 20260510011531 | 73 | 293 | 0.9 | 5.2 | 0.00 | 0.00 | 0.00 | 34 | 1017.1 |
| 20260510010033 | 73 | 301 | 2.6 | 4.3 | 0.00 | 0.00 | 0.00 | 34 | 1017.1 |
| 20260510004535 | 74 | 298 | 2.6 | 5.2 | 0.00 | 0.00 | 0.00 | 34 | 1017.1 |
| 20260510003034 | 74 | 311 | 2.6 | 6.1 | 0.00 | 0.00 | 0.00 | 36 | 1017.2 |
| 20260510001535 | 74 | 310 | 3.5 | 7.0 | 0.00 | 0.00 | 0.00 | 38 | 1017.2 |
| 20260510000036 | 74 | 317 | 3.5 | 7.0 | 0.00 | 0.00 | 0.00 | 38 | 1017.3 |
| 20260509234534 | 74 | 319 | 4.3 | 7.8 | 0.00 | 0.00 | 0.00 | 39 | 1017.5 |
| 20260509233035 | 74 | 337 | 4.3 | 7.8 | 0.00 | 0.00 | 0.00 | 39 | 1017.6 |
| 20260509231536 | 73 | 300 | 3.5 | 8.7 | 0.00 | 0.00 | 0.00 | 41 | 1018.1 |
| 20260509224531 | 73 | 329 | 3.5 | 7.8 | 0.00 | 0.00 | 0.00 | 40 | 1018.4 |
| 20260509223031 | 73 | 338 | 2.6 | 7.8 | 0.00 | 0.00 | 0.00 | 41 | 1018.7 |
| 20260509221642 | 72 | 327 | 3.5 | 8.7 | 0.00 | 0.00 | 0.00 | 42 | 1018.9 |
| 20260509220036 | 71 | 305 | 4.3 | 9.6 | 0.00 | 0.00 | 0.00 | 44 | 1019.0 |